DW8589 Weather Reports


Display with metric or nautical units.
time (UTC)temp
F
wind
direction
speed
MPH
gust
MPH
rain 1hr
in
rain 24hr
in
rain mn
in
humidity
%
barometer
mb
20191112125409 49 0 0.0 0.0 0.00 0.00 0.00 87 1007.7
20191112124910 49 0 0.0 0.0 0.00 0.00 0.00 89 1007.7
20191112124410 49 0 0.0 0.0 0.00 0.00 0.00 88 1007.7
20191112123910 49 0 0.0 0.0 0.00 0.00 0.00 88 1007.5
20191112123410 49 0 0.0 0.0 0.00 0.00 0.00 88 1007.7
20191112122909 49 0 0.0 0.0 0.00 0.00 0.00 87 1007.7
20191112122410 49 0 0.0 0.0 0.00 0.00 0.00 91 1007.6
20191112121910 49 0 0.0 0.0 0.00 0.00 0.00 89 1007.6
20191112121410 49 0 0.0 0.0 0.00 0.00 0.00 89 1007.7
20191112120910 49 0 0.0 0.0 0.00 0.00 0.00 90 1007.8
20191112120410 49 0 0.0 0.0 0.00 0.00 0.00 88 1007.8
20191112115910 49 0 0.0 0.0 0.00 0.00 0.00 88 1007.9
20191112115409 49 0 0.0 0.0 0.00 0.00 0.00 88 1007.9
20191112114910 49 0 0.0 0.0 0.00 0.00 0.00 87 1008.0
20191112114410 49 0 0.0 0.0 0.00 0.00 0.00 90 1008.1
20191112113909 49 0 0.0 0.0 0.00 0.00 0.00 91 1008.1
20191112113410 48 0 0.0 0.0 0.00 0.00 0.00 94 1008.0
20191112112910 48 0 0.0 0.0 0.00 0.00 0.00 93 1008.0
20191112112410 49 0 0.0 0.0 0.00 0.00 0.00 94 1008.2
20191112111909 49 0 0.0 0.0 0.00 0.00 0.00 93 1008.4
20191112111410 49 0 0.0 0.0 0.00 0.00 0.00 91 1008.7
20191112110909 49 0 0.0 0.0 0.00 0.00 0.00 88 1008.8
20191112110410 49 0 0.0 0.0 0.00 0.00 0.00 86 1008.9
20191112105909 49 0 0.0 0.0 0.00 0.00 0.00 86 1008.9
20191112105410 50 0 0.0 0.0 0.00 0.00 0.00 84 1009.0
20191112104910 49 0 0.0 0.0 0.00 0.00 0.00 84 1009.2
20191112104410 50 0 0.0 0.0 0.00 0.00 0.00 83 1009.3
20191112103910 50 0 0.0 0.0 0.00 0.00 0.00 82 1009.3
20191112103410 50 0 0.0 0.0 0.00 0.00 0.00 83 1009.3
20191112102910 50 0 0.0 0.0 0.00 0.00 0.00 82 1009.3
20191112102410 50 0 0.0 0.0 0.00 0.00 0.00 80 1009.0
20191112101910 51 0 0.0 0.0 0.00 0.00 0.00 82 1009.1
20191112101409 51 0 0.0 0.0 0.00 0.00 0.00 82 1009.2
20191112100910 51 0 0.0 0.0 0.00 0.00 0.00 82 1009.2
20191112100410 50 0 0.0 0.0 0.00 0.00 0.00 81 1009.4
20191112095910 50 0 0.0 0.0 0.00 0.00 0.00 83 1009.6
20191112095409 50 0 0.0 0.0 0.00 0.00 0.00 82 1009.7
20191112094910 50 0 0.0 0.0 0.00 0.00 0.00 84 1009.9
20191112094409 49 0 0.0 0.0 0.00 0.00 0.00 84 1010.0
20191112093909 49 0 0.0 0.0 0.00 0.00 0.00 84 1010.1
20191112093409 49 0 0.0 0.0 0.00 0.00 0.00 84 1010.1
20191112092909 49 0 0.0 0.0 0.00 0.00 0.00 86 1010.2
20191112092410 49 0 0.0 0.0 0.00 0.00 0.00 84 1010.1
20191112091916 49 0 0.0 0.0 0.00 0.00 0.00 85 1010.2
20191112091410 49 0 0.0 0.0 0.00 0.00 0.00 85 1010.4
20191112090909 49 0 0.0 0.0 0.00 0.00 0.00 85 1010.4
20191112090410 49 0 0.0 0.0 0.00 0.00 0.00 85 1010.2
20191112085909 49 0 0.0 0.0 0.00 0.00 0.00 85 1010.1
20191112085409 49 0 0.0 0.0 0.00 0.00 0.00 86 1010.3
20191112084909 49 0 0.0 0.0 0.00 0.00 0.00 86 1010.2
20191112084410 48 0 0.0 0.0 0.00 0.00 0.00 86 1010.3
20191112083910 48 0 0.0 0.0 0.00 0.00 0.00 87 1010.2
20191112083409 48 0 0.0 0.0 0.00 0.00 0.00 87 1010.2
20191112082909 48 0 0.0 0.0 0.00 0.00 0.00 88 1010.2
20191112082410 48 0 0.0 0.0 0.00 0.00 0.00 88 1010.2
20191112081910 48 0 0.0 0.0 0.00 0.00 0.00 88 1010.1
20191112081409 47 0 0.0 0.0 0.00 0.00 0.00 90 1010.1
20191112080909 47 0 0.0 0.0 0.00 0.00 0.00 90 1010.3
20191112080409 47 0 0.0 0.0 0.00 0.00 0.00 89 1010.2
20191112075909 47 0 0.0 0.0 0.00 0.00 0.00 90 1010.3
20191112075410 47 0 0.0 0.0 0.00 0.00 0.00 91 1010.3
20191112074909 47 0 0.0 0.0 0.00 0.00 0.00 91 1010.4
20191112074410 47 0 0.0 0.0 0.00 0.00 0.00 91 1010.4
20191112073910 46 0 0.0 0.0 0.00 0.00 0.00 92 1010.4
20191112073409 46 0 0.0 0.0 0.00 0.00 0.00 93 1010.5
20191112072909 46 0 0.0 0.0 0.00 0.00 0.00 94 1010.4
20191112072410 46 0 0.0 0.0 0.00 0.00 0.00 94 1010.5
20191112071910 45 0 0.0 0.0 0.00 0.00 0.00 94 1010.6
20191112071410 45 0 0.0 0.0 0.00 0.00 0.00 94 1010.5
20191112070909 45 0 0.0 0.0 0.00 0.00 0.00 94 1010.5
20191112070409 45 0 0.0 0.0 0.00 0.00 0.00 94 1010.5
20191112065909 45 0 0.0 0.0 0.00 0.00 0.00 94 1010.7
20191112065409 45 0 0.0 0.0 0.00 0.00 0.00 94 1010.7
20191112064909 45 0 0.0 0.0 0.00 0.00 0.00 94 1010.7
20191112064409 45 0 0.0 0.0 0.00 0.00 0.00 94 1010.7
20191112063909 45 0 0.0 0.0 0.00 0.00 0.00 94 1010.7
20191112063409 45 0 0.0 0.0 0.00 0.00 0.00 95 1010.7
20191112062909 44 0 0.0 0.0 0.00 0.00 0.00 95 1010.8
20191112062409 44 0 0.0 0.0 0.00 0.00 0.00 95 1010.8
20191112061909 44 0 0.0 0.0 0.00 0.00 0.00 95 1010.9
20191112061409 45 0 0.0 0.0 0.00 0.00 0.00 94 1010.8
20191112060909 44 0 0.0 0.0 0.00 0.00 0.00 95 1010.8
20191112060409 44 0 0.0 0.0 0.00 0.00 0.00 95 1010.7
20191112055909 44 0 0.0 0.0 0.00 0.00 0.00 96 1010.6
20191112055409 44 0 0.0 0.0 0.00 0.00 0.00 95 1010.8
20191112054909 44 0 0.0 0.0 0.00 0.00 0.00 95 1010.7
20191112054409 44 0 0.0 0.0 0.00 0.00 0.00 95 1010.9
20191112053909 44 0 0.0 0.0 0.00 0.00 0.00 95 1010.8
20191112053409 44 0 0.0 0.0 0.00 0.00 0.00 95 1010.8
20191112052909 44 0 0.0 0.0 0.00 0.00 0.00 96 1010.8
20191112052409 43 0 0.0 0.0 0.00 0.00 0.00 97 1010.7
20191112051909 43 0 0.0 0.0 0.00 0.00 0.00 96 1010.8
20191112051409 43 0 0.0 0.0 0.00 0.00 0.00 96 1010.7
20191112050909 44 0 0.0 0.0 0.00 0.00 0.00 96 1010.7
20191112050408 43 0 0.0 0.0 0.00 0.00 0.00 96 1010.9
20191112045909 43 0 0.0 0.0 0.00 0.00 0.00 96 1010.7
20191112045409 43 0 0.0 0.0 0.00 0.00 0.00 96 1010.8
20191112044909 43 0 0.0 0.0 0.00 0.00 0.00 96 1010.7
20191112044408 43 0 0.0 0.0 0.00 0.00 0.00 96 1010.5
20191112043909 43 0 0.0 0.0 0.00 0.00 0.00 96 1010.6
20191112043409 44 0 0.0 0.0 0.00 0.00 0.00 95 1010.5
20191112042909 43 0 0.0 0.0 0.00 0.00 0.00 96 1010.4
20191112042409 44 0 0.0 0.0 0.00 0.00 0.00 95 1010.7
20191112041909 44 0 0.0 0.0 0.00 0.00 0.00 95 1010.9
20191112041408 44 0 0.0 0.0 0.00 0.00 0.00 95 1011.1
20191112040909 44 0 0.0 0.0 0.00 0.00 0.00 95 1011.1
20191112040409 43 0 0.0 0.0 0.00 0.00 0.00 95 1011.0
20191112035909 43 0 0.0 0.0 0.00 0.00 0.00 95 1011.0
20191112035409 43 0 0.0 0.0 0.00 0.00 0.00 96 1011.2
20191112034909 43 0 0.0 0.0 0.00 0.00 0.00 97 1011.0
20191112034409 43 0 0.0 0.0 0.00 0.00 0.00 97 1011.0
20191112033909 43 0 0.0 0.0 0.00 0.00 0.00 97 1010.8
20191112033408 43 0 0.0 0.0 0.00 0.00 0.00 98 1010.8
20191112032909 43 0 0.0 0.0 0.00 0.00 0.00 98 1010.8
20191112032409 43 0 0.0 0.0 0.00 0.00 0.00 98 1010.7
20191112031914 43 0 0.0 0.0 0.00 0.00 0.00 98 1010.7
20191112031409 43 0 0.0 0.0 0.00 0.00 0.00 99 1010.9
20191112030909 43 0 0.0 0.0 0.00 0.00 0.00 99 1010.9
20191112030409 43 0 0.0 0.0 0.00 0.00 0.00 99 1010.8
20191112025908 42 0 0.0 0.0 0.00 0.00 0.00 99 1010.8
20191112025409 43 0 0.0 0.0 0.00 0.00 0.00 98 1010.7
20191112024908 43 0 0.0 0.0 0.00 0.00 0.00 98 1010.8
20191112024408 43 0 0.0 0.0 0.00 0.00 0.00 97 1010.7
20191112023908 43 0 0.0 0.0 0.00 0.00 0.00 97 1010.6
20191112023408 43 0 0.0 0.0 0.00 0.00 0.00 98 1010.7
20191112022908 43 0 0.0 0.0 0.00 0.00 0.00 98 1010.7
20191112022409 43 0 0.0 0.0 0.00 0.00 0.00 99 1010.9
20191112021908 43 0 0.0 0.0 0.00 0.00 0.00 98 1011.0
20191112021408 43 0 0.0 0.0 0.00 0.00 0.00 98 1011.1
20191112020909 43 0 0.0 0.0 0.00 0.00 0.00 98 1011.3
20191112020408 43 0 0.0 0.0 0.00 0.00 0.00 97 1011.1
20191112015909 43 0 0.0 0.0 0.00 0.00 0.00 97 1011.2
20191112015409 43 0 0.0 0.0 0.00 0.00 0.00 98 1011.2
20191112014909 43 0 0.0 0.0 0.00 0.00 0.00 97 1011.2
20191112014409 43 0 0.0 0.0 0.00 0.00 0.00 97 1011.5
20191112013909 43 0 0.0 0.0 0.00 0.00 0.00 97 1011.3
20191112013408 43 0 0.0 0.0 0.00 0.00 0.00 97 1011.3
20191112012908 43 0 0.0 0.0 0.00 0.00 0.00 97 1011.2
20191112012409 42 0 0.0 0.0 0.00 0.00 0.00 98 1011.2
20191112011909 42 0 0.0 0.0 0.00 0.00 0.00 98 1011.3
20191112011409 42 0 0.0 0.0 0.00 0.00 0.00 98 1011.4
20191112010909 42 0 0.0 0.0 0.00 0.00 0.00 99 1011.4
20191112010409 42 0 0.0 0.0 0.00 0.00 0.00 99 1011.4
20191112005908 42 0 0.0 0.0 0.00 0.00 0.00 99 1011.5
20191112005409 42 0 0.0 0.0 0.00 0.00 0.00 100 1011.6
20191112004908 42 0 0.0 0.0 0.00 0.00 0.00 100 1011.6
20191112004408 42 0 0.0 0.0 0.00 0.00 0.00 99 1011.5
20191112003908 42 0 0.0 0.0 0.00 0.00 0.00 100 1011.5
20191112003408 42 0 0.0 0.0 0.00 0.00 0.00 99 1011.8
20191112002908 42 0 0.0 0.0 0.00 0.00 0.00 99 1011.9
20191112002409 42 0 0.0 0.0 0.00 0.00 0.00 99 1012.0
20191112001908 42 0 0.0 0.0 0.00 0.00 0.00 100 1012.0
20191112001408 42 0 0.0 0.0 0.00 0.00 0.00 99 1012.0
20191112000908 42 0 0.0 0.0 0.00 0.00 0.00 99 1011.9
20191112000408 42 0 0.0 0.0 0.00 0.00 0.00 99 1012.0
20191111235909 42 0 0.0 0.0 0.00 0.00 0.00 99 1012.0
20191111235408 42 0 0.0 0.0 0.00 0.00 0.00 100 1012.0
20191111234908 42 0 0.0 0.0 0.00 0.00 0.00 99 1011.9
20191111234408 42 0 0.0 0.0 0.00 0.00 0.00 100 1011.9
20191111233908 42 0 0.0 0.0 0.00 0.00 0.00 100 1011.8
20191111233409 42 0 0.0 0.0 0.00 0.00 0.00 100 1011.8
20191111232909 42 0 0.0 0.0 0.00 0.00 0.00 100 1011.9
20191111232408 42 0 0.0 0.0 0.00 0.00 0.00 100 1012.0
20191111231909 42 0 0.0 0.0 0.00 0.00 0.00 100 1012.1
20191111231409 41 0 0.0 0.0 0.00 0.00 0.00 100 1012.0
20191111230909 41 0 0.0 0.0 0.00 0.00 0.00 100 1012.0
20191111230408 41 0 0.0 0.0 0.00 0.00 0.00 100 1012.1
20191111225908 41 0 0.0 0.0 0.00 0.00 0.00 100 1012.0
20191111225409 41 0 0.0 0.0 0.00 0.00 0.00 100 1012.1
20191111224908 41 0 0.0 0.0 0.00 0.00 0.00 100 1012.0
20191111224409 41 0 0.0 0.0 0.00 0.00 0.00 100 1012.0
20191111223908 41 0 0.0 0.0 0.00 0.00 0.00 100 1012.1
20191111223408 42 0 0.0 0.0 0.00 0.00 0.00 100 1012.0
20191111222908 42 0 0.0 0.0 0.00 0.00 0.00 100 1012.0
20191111222408 42 0 0.0 0.0 0.00 0.00 0.00 100 1012.0
20191111221909 42 0 0.0 0.0 0.00 0.00 0.00 100 1011.9
20191111221409 42 0 0.0 0.0 0.00 0.00 0.00 100 1012.0
20191111220908 42 0 0.0 0.0 0.00 0.00 0.00 100 1012.2
20191111220408 42 0 0.0 0.0 0.00 0.00 0.00 100 1012.3
20191111215908 42 0 0.0 0.0 0.00 0.00 0.00 100 1012.2
20191111215408 42 0 0.0 0.0 0.00 0.00 0.00 100 1012.3
20191111214909 42 0 0.0 0.0 0.00 0.00 0.00 100 1012.3
20191111214409 42 0 0.0 0.0 0.00 0.00 0.00 100 1012.3
20191111213908 41 0 0.0 0.0 0.00 0.00 0.00 100 1012.4
20191111213408 41 0 0.0 0.0 0.00 0.00 0.00 100 1012.4
20191111212908 41 0 0.0 0.0 0.00 0.00 0.00 100 1012.3
20191111212408 41 0 0.0 0.0 0.00 0.00 0.00 100 1012.3
20191111211909 41 0 0.0 0.0 0.00 0.00 0.00 100 1012.4
20191111211408 41 0 0.0 0.0 0.00 0.00 0.00 100 1012.4
20191111210908 41 0 0.0 0.0 0.00 0.00 0.00 100 1012.4
20191111210408 41 0 0.0 0.0 0.00 0.01 0.00 100 1012.5
20191111205909 41 0 0.0 0.0 0.00 0.01 0.00 100 1012.4
20191111205408 40 0 0.0 0.0 0.00 0.01 0.00 100 1012.3
20191111204908 41 0 0.0 0.0 0.00 0.01 0.00 100 1012.3
20191111204408 41 0 0.0 0.0 0.00 0.01 0.00 100 1012.4
20191111203908 41 0 0.0 0.0 0.00 0.01 0.00 100 1012.5
20191111203408 41 0 0.0 0.0 0.00 0.01 0.00 100 1012.7
20191111202909 41 0 0.0 0.0 0.00 0.01 0.00 100 1012.5
20191111202408 41 0 0.0 0.0 0.00 0.01 0.00 100 1012.6
20191111201909 41 0 0.0 0.0 0.00 0.02 0.00 100 1012.7
20191111201409 41 0 0.0 0.0 0.00 0.02 0.00 100 1012.8
20191111200908 41 0 0.0 0.0 0.00 0.02 0.00 100 1012.9
20191111200408 41 0 0.0 0.0 0.00 0.02 0.00 100 1013.0
20191111195908 41 0 0.0 0.0 0.00 0.02 0.00 100 1012.7
20191111195408 41 0 0.0 0.0 0.00 0.02 0.00 100 1012.8
20191111194908 41 0 0.0 0.0 0.00 0.02 0.00 99 1013.0
20191111194408 41 0 0.0 0.0 0.00 0.02 0.00 99 1013.1
20191111193908 41 0 0.0 0.0 0.00 0.02 0.00 99 1013.1
20191111193408 41 0 0.0 0.0 0.00 0.03 0.00 98 1013.1
20191111192908 41 0 0.0 0.0 0.00 0.03 0.00 99 1013.2
20191111192408 41 0 0.0 0.0 0.00 0.03 0.00 99 1013.2
20191111191908 41 0 0.0 0.0 0.00 0.03 0.00 99 1013.1
20191111191408 41 0 0.0 0.0 0.00 0.03 0.00 98 1013.4
20191111190908 41 0 0.0 0.0 0.00 0.04 0.00 97 1013.2
20191111190408 41 0 0.0 0.0 0.00 0.04 0.00 96 1013.4
20191111185908 41 0 0.0 0.0 0.00 0.04 0.00 96 1013.1
20191111185408 41 0 0.0 0.0 0.00 0.04 0.00 96 1013.0
20191111184908 41 0 0.0 0.0 0.00 0.04 0.00 96 1013.0
20191111184408 41 0 0.0 0.0 0.00 0.04 0.00 98 1012.9
20191111183908 40 0 0.0 0.0 0.00 0.04 0.00 98 1012.8
20191111183408 40 0 0.0 0.0 0.00 0.04 0.00 98 1012.8
20191111182908 40 0 0.0 0.0 0.00 0.04 0.00 98 1012.8
20191111182408 40 0 0.0 0.0 0.00 0.04 0.00 97 1012.7
20191111181908 40 0 0.0 0.0 0.00 0.04 0.00 96 1012.8
20191111181407 40 0 0.0 0.0 0.00 0.04 0.00 95 1012.8
20191111180908 40 0 0.0 0.0 0.00 0.04 0.00 95 1012.7
20191111180408 40 0 0.0 0.0 0.00 0.04 0.00 96 1012.9
20191111175908 40 0 0.0 0.0 0.00 0.04 0.00 96 1012.8
20191111175408 40 0 0.0 0.0 0.00 0.04 0.00 97 1012.8
20191111174908 40 0 0.0 0.0 0.00 0.04 0.00 97 1012.7
20191111174408 40 0 0.0 0.0 0.00 0.04 0.00 96 1012.7
20191111173908 40 0 0.0 0.0 0.00 0.04 0.00 97 1012.8
20191111173408 40 0 0.0 0.0 0.00 0.04 0.00 97 1012.8
20191111172907 39 0 0.0 0.0 0.00 0.04 0.00 98 1012.9
20191111172407 39 0 0.0 0.0 0.00 0.04 0.00 98 1012.8
20191111171908 39 0 0.0 0.0 0.00 0.05 0.00 98 1012.8
20191111171407 40 0 0.0 0.0 0.00 0.06 0.00 97 1012.8
20191111170908 40 0 0.0 0.0 0.00 0.07 0.00 96 1012.8
20191111170407 40 0 0.0 0.0 0.00 0.10 0.00 95 1012.8
20191111165908 40 0 0.0 0.0 0.00 0.12 0.00 94 1012.7
20191111165408 40 0 0.0 0.0 0.00 0.13 0.00 95 1012.8
20191111164908 40 0 0.0 0.0 0.00 0.15 0.00 95 1012.7
20191111164408 40 0 0.0 0.0 0.00 0.16 0.00 94 1012.8
20191111163908 40 0 0.0 0.0 0.00 0.18 0.00 94 1012.7
20191111163408 40 0 0.0 0.0 0.00 0.21 0.00 93 1012.8
20191111162907 40 0 0.0 0.0 0.00 0.23 0.00 92 1012.8
20191111162408 40 0 0.0 0.0 0.00 0.24 0.00 92 1012.9
20191111161908 40 0 0.0 0.0 0.00 0.24 0.00 91 1012.8
20191111161408 40 0 0.0 0.0 0.00 0.25 0.00 92 1012.9
20191111160908 40 0 0.0 0.0 0.00 0.27 0.00 92 1013.0
20191111160408 40 0 0.0 0.0 0.00 0.28 0.00 92 1012.8
20191111155908 40 0 0.0 0.0 0.00 0.29 0.00 91 1013.0
20191111155408 40 0 0.0 0.0 0.00 0.29 0.00 91 1012.9
20191111154908 40 0 0.0 0.0 0.00 0.30 0.00 91 1012.8
20191111154408 40 0 0.0 0.0 0.00 0.31 0.00 93 1012.9
20191111153908 40 0 0.0 0.0 0.00 0.31 0.00 93 1012.9
20191111153409 40 0 0.0 0.0 0.00 0.32 0.00 92 1012.9
20191111152908 41 0 0.0 0.0 0.00 0.32 0.00 91 1012.8
20191111152408 41 0 0.0 0.0 0.00 0.33 0.00 89 1012.7
20191111151914 41 0 0.0 0.0 0.00 0.33 0.00 88 1012.8
20191111151408 42 0 0.0 0.0 0.00 0.33 0.00 86 1012.9
20191111150908 41 0 0.0 0.0 0.00 0.33 0.00 87 1012.9
20191111150408 42 0 0.0 0.0 0.00 0.33 0.00 86 1012.8
20191111145909 42 0 0.0 0.0 0.00 0.33 0.00 86 1012.9
20191111145408 42 0 0.0 0.0 0.00 0.34 0.00 85 1013.1
20191111144908 42 0 0.0 0.0 0.00 0.34 0.00 86 1013.2
20191111144408 42 0 0.0 0.0 0.00 0.34 0.00 85 1013.0
20191111143908 42 0 0.0 0.0 0.00 0.34 0.00 85 1013.0
20191111143408 42 0 0.0 0.0 0.00 0.35 0.00 84 1013.2
20191111142908 42 0 0.0 0.0 0.00 0.35 0.00 84 1013.3
20191111142408 42 0 0.0 0.0 0.00 0.35 0.00 84 1013.3
20191111141908 42 0 0.0 0.0 0.00 0.36 0.00 84 1013.3
20191111141408 43 0 0.0 0.0 0.00 0.36 0.00 84 1013.5
20191111140908 43 0 0.0 0.0 0.00 0.37 0.00 84 1013.5
20191111140408 43 0 0.0 0.0 0.00 0.37 0.00 83 1013.5
20191111135908 43 0 0.0 0.0 0.00 0.37 0.00 83 1013.6
20191111135409 43 0 0.0 0.0 0.00 0.37 0.00 86 1013.7
20191111134908 43 0 0.0 0.0 0.00 0.37 0.00 85 1013.7
20191111134408 43 0 0.0 0.0 0.00 0.37 0.00 85 1013.8
20191111133909 43 0 0.0 0.0 0.00 0.38 0.00 85 1013.6
20191111133408 44 0 0.0 0.0 0.00 0.38 0.00 82 1013.7
20191111132908 44 0 0.0 0.0 0.00 0.39 0.00 82 1013.7
20191111132408 44 0 0.0 0.0 0.00 0.39 0.00 82 1013.8
20191111131908 44 0 0.0 0.0 0.00 0.40 0.00 81 1013.7
20191111131408 44 0 0.0 0.0 0.00 0.41 0.00 81 1013.8
20191111130908 44 0 0.0 0.0 0.00 0.41 0.00 81 1013.8
20191111130408 44 0 0.0 0.0 0.00 0.42 0.00 81 1013.9
20191111125908 45 0 0.0 0.0 0.00 0.42 0.00 80 1013.9